Tracking 30918 objects as of 2-Jul-2025
HD Live streaming from Space Station
objects crossing your sky now

COSMOS 1275 DEB

Track COSMOS 1275 DEB now!
10-day predictions


NORAD ID: 13471
Int'l Code: 1981-053FT
Perigee: 860.1 km
Apogee: 930.6 km
Inclination: 82.8 °
Period: 102.7 minutes
Semi major axis: 7266 km
RCS: 0.0585 m2 (small)
Launch date: June 4, 1981
Source: Commonwealth of Independent States (former USSR) (CIS)
Launch site: PLESETSK MISSILE AND SPACE COMPLEX (PKMTR)

Note: This is SATELLITE DEBRIS
Your satellite tracking list
OSCAR 25
Track 1 satellite(s)




NASA's NSSDC Master Catalog

Two Line Element Set (TLE):
1 13471U 81053FT  25182.83031199  .00001311  00000-0  84759-3 0  9997
2 13471  82.8063 104.1294 0048556 254.3809 166.9660 14.01609218178434
Source of the keplerian elements: AFSPC